| time (UTC) | temp F | wind direction | speed knots | gust knots | rain 1hr in | rain 24hr in | rain mn in | humidity % | barometer mb |
| 20260508145411 | 54 | 226 | 7.0 | 9.6 | 0.00 | 0.00 | 0.00 | 68 | 1031.1 |
| 20260508144412 | 55 | 224 | 9.6 | 11.3 | 0.00 | 0.00 | 0.00 | 68 | 1030.9 |
| 20260508143412 | 55 | 222 | 12.2 | 15.6 | 0.00 | 0.00 | 0.00 | 67 | 1030.9 |
| 20260508142512 | 55 | 222 | 13.9 | 20.0 | 0.00 | 0.00 | 0.00 | 65 | 1030.7 |
| 20260508140511 | 55 | 225 | 13.0 | 20.9 | 0.00 | 0.00 | 0.00 | 64 | 1030.0 |
| 20260508134510 | 56 | 226 | 11.3 | 15.6 | 0.00 | 0.00 | 0.00 | 62 | 1029.8 |
| 20260508134411 | 56 | 226 | 12.2 | 16.5 | 0.00 | 0.00 | 0.00 | 62 | 1029.7 |
| 20260508133412 | 56 | 233 | 11.3 | 13.9 | 0.00 | 0.00 | 0.00 | 60 | 1029.3 |
| 20260508132412 | 56 | 227 | 8.7 | 11.3 | 0.00 | 0.00 | 0.00 | 60 | 1029.4 |
| 20260508131412 | 56 | 237 | 9.6 | 13.0 | 0.00 | 0.00 | 0.00 | 59 | 1029.2 |
| 20260508130511 | 57 | 226 | 8.7 | 12.2 | 0.00 | 0.00 | 0.00 | 60 | 1028.8 |
| 20260508125511 | 57 | 229 | 10.4 | 13.9 | 0.00 | 0.00 | 0.00 | 64 | 1029.0 |
| 20260508124511 | 57 | 237 | 7.8 | 10.4 | 0.00 | 0.00 | 0.00 | 65 | 1028.8 |
| 20260508123511 | 57 | 222 | 10.4 | 13.9 | 0.00 | 0.00 | 0.00 | 66 | 1028.7 |
| 20260508122511 | 57 | 224 | 9.6 | 13.9 | 0.00 | 0.00 | 0.00 | 66 | 1028.8 |
| 20260508122411 | 57 | 230 | 11.3 | 15.6 | 0.00 | 0.00 | 0.00 | 66 | 1028.4 |
| 20260508115511 | 55 | 225 | 7.8 | 9.6 | 0.00 | 0.00 | 0.00 | 71 | 1028.4 |
| 20260508114610 | 54 | 225 | 7.0 | 8.7 | 0.00 | 0.00 | 0.00 | 74 | 1028.2 |
| 20260508113612 | 52 | 224 | 7.0 | 11.3 | 0.00 | 0.00 | 0.00 | 81 | 1028.3 |
| 20260508112612 | 50 | 216 | 1.7 | 3.5 | 0.00 | 0.00 | 0.00 | 83 | 1028.3 |
| 20260508110511 | 50 | 180 | 0.0 | 0.0 | 0.00 | 0.00 | 0.00 | 82 | 1028.2 |
| 20260508105511 | 50 | 180 | 0.0 | 0.0 | 0.00 | 0.00 | 0.00 | 81 | 1028.0 |
| 20260508104512 | 50 | 180 | 0.0 | 0.0 | 0.00 | 0.00 | 0.00 | 81 | 1027.9 |
| 20260508100612 | 50 | 180 | 0.0 | 0.0 | 0.00 | 0.00 | 0.00 | 80 | 1027.9 |
| 20260508095711 | 50 | 180 | 0.0 | 0.0 | 0.00 | 0.00 | 0.00 | 80 | 1027.9 |
| 20260508093712 | 50 | 180 | 0.0 | 0.0 | 0.00 | 0.00 | 0.00 | 79 | 1027.7 |
| 20260508091911 | 50 | 195 | 0.0 | 0.0 | 0.00 | 0.00 | 0.00 | 79 | 1027.7 |
| 20260508090911 | 50 | 202 | 0.0 | 0.0 | 0.00 | 0.00 | 0.00 | 79 | 1027.5 |
| 20260508085912 | 50 | 202 | 0.0 | 0.0 | 0.00 | 0.00 | 0.00 | 78 | 1027.5 |
| 20260508084912 | 51 | 202 | 0.0 | 0.0 | 0.00 | 0.00 | 0.00 | 77 | 1027.5 |
| 20260508083912 | 51 | 202 | 0.0 | 0.0 | 0.00 | 0.00 | 0.00 | 75 | 1027.5 |
| 20260508082911 | 51 | 202 | 0.0 | 0.0 | 0.00 | 0.00 | 0.00 | 75 | 1027.4 |
| 20260508082010 | 51 | 202 | 0.0 | 0.0 | 0.00 | 0.00 | 0.00 | 73 | 1027.5 |
| 20260508081011 | 51 | 202 | 0.0 | 0.0 | 0.00 | 0.00 | 0.00 | 74 | 1027.4 |
| 20260508080111 | 51 | 202 | 0.0 | 0.0 | 0.00 | 0.00 | 0.00 | 74 | 1027.4 |
| 20260508074113 | 52 | 202 | 0.0 | 0.0 | 0.00 | 0.00 | 0.00 | 72 | 1027.2 |
| 20260508072211 | 52 | 202 | 0.0 | 0.0 | 0.00 | 0.00 | 0.00 | 69 | 1027.3 |
| 20260508071213 | 53 | 202 | 0.0 | 0.0 | 0.00 | 0.00 | 0.00 | 68 | 1027.2 |
| 20260508070212 | 53 | 202 | 0.0 | 0.0 | 0.00 | 0.00 | 0.00 | 67 | 1027.2 |
| 20260508065220 | 53 | 202 | 0.0 | 0.0 | 0.00 | 0.00 | 0.00 | 67 | 1027.3 |
| 20260508064220 | 53 | 202 | 0.0 | 0.0 | 0.00 | 0.00 | 0.00 | 68 | 1027.2 |
| 20260508063221 | 54 | 202 | 0.0 | 0.0 | 0.00 | 0.00 | 0.00 | 69 | 1027.3 |
| 20260508062220 | 54 | 202 | 0.0 | 0.0 | 0.00 | 0.00 | 0.00 | 67 | 1027.3 |
| 20260508061221 | 55 | 202 | 0.0 | 0.0 | 0.00 | 0.00 | 0.00 | 66 | 1027.2 |
| 20260508060223 | 55 | 202 | 0.0 | 0.0 | 0.00 | 0.00 | 0.00 | 65 | 1027.2 |
| 20260508055220 | 55 | 202 | 0.0 | 0.0 | 0.00 | 0.00 | 0.00 | 68 | 1027.2 |
| 20260508054222 | 55 | 202 | 0.0 | 0.0 | 0.00 | 0.00 | 0.00 | 67 | 1027.2 |
| 20260508053219 | 56 | 225 | 0.0 | 0.0 | 0.00 | 0.00 | 0.00 | 68 | 1027.3 |
| 20260508052220 | 56 | 225 | 0.0 | 0.0 | 0.00 | 0.00 | 0.00 | 67 | 1027.2 |
| 20260508050319 | 57 | 225 | 0.0 | 0.0 | 0.00 | 0.00 | 0.00 | 67 | 1027.3 |
| 20260508045321 | 58 | 225 | 0.0 | 0.0 | 0.00 | 0.00 | 0.00 | 66 | 1027.2 |
| 20260508044320 | 58 | 225 | 0.9 | 1.7 | 0.00 | 0.00 | 0.00 | 66 | 1027.1 |
| 20260508043321 | 58 | 202 | 0.0 | 0.0 | 0.00 | 0.00 | 0.00 | 64 | 1027.2 |
| 20260508042322 | 60 | 202 | 0.0 | 0.0 | 0.00 | 0.00 | 0.00 | 60 | 1027.1 |
| 20260508041321 | 61 | 202 | 0.0 | 0.0 | 0.00 | 0.00 | 0.00 | 53 | 1027.1 |
| 20260508040321 | 61 | 202 | 0.0 | 0.0 | 0.00 | 0.00 | 0.00 | 55 | 1027.1 |
| 20260508034321 | 63 | 225 | 3.5 | 5.2 | 0.00 | 0.00 | 0.00 | 49 | 1026.6 |
| 20260508033319 | 63 | 225 | 4.3 | 5.2 | 0.00 | 0.00 | 0.00 | 46 | 1026.5 |
| 20260508032321 | 64 | 225 | 4.3 | 6.1 | 0.00 | 0.00 | 0.00 | 44 | 1026.4 |
| 20260508031419 | 65 | 229 | 3.5 | 5.2 | 0.00 | 0.00 | 0.00 | 43 | 1026.4 |
| 20260508030421 | 65 | 229 | 4.3 | 6.1 | 0.00 | 0.00 | 0.00 | 41 | 1026.3 |
| 20260508025420 | 66 | 225 | 6.1 | 7.8 | 0.00 | 0.00 | 0.00 | 40 | 1026.3 |
| 20260508024420 | 66 | 225 | 5.2 | 9.6 | 0.00 | 0.00 | 0.00 | 39 | 1026.3 |
| 20260508023421 | 67 | 223 | 8.7 | 11.3 | 0.00 | 0.00 | 0.00 | 38 | 1026.4 |
| 20260508022422 | 67 | 225 | 9.6 | 12.2 | 0.00 | 0.00 | 0.00 | 37 | 1026.3 |
| 20260508022319 | 67 | 227 | 8.7 | 10.4 | 0.00 | 0.00 | 0.00 | 38 | 1026.4 |
| 20260508021321 | 68 | 225 | 8.7 | 13.9 | 0.00 | 0.00 | 0.00 | 38 | 1026.3 |
| 20260508021219 | 68 | 225 | 8.7 | 11.3 | 0.00 | 0.00 | 0.00 | 38 | 1026.4 |
| 20260508020220 | 68 | 223 | 9.6 | 13.9 | 0.00 | 0.00 | 0.00 | 37 | 1026.2 |
| 20260508015221 | 68 | 218 | 6.1 | 9.6 | 0.00 | 0.00 | 0.00 | 36 | 1026.2 |
| 20260508014319 | 68 | 226 | 8.7 | 12.2 | 0.00 | 0.00 | 0.00 | 36 | 1026.1 |
| 20260508014220 | 68 | 227 | 9.6 | 11.3 | 0.00 | 0.00 | 0.00 | 36 | 1026.2 |
| 20260508013221 | 68 | 225 | 10.4 | 15.6 | 0.00 | 0.00 | 0.00 | 36 | 1026.2 |
| 20260508013119 | 68 | 226 | 7.8 | 12.2 | 0.00 | 0.00 | 0.00 | 36 | 1026.3 |
| 20260508012122 | 68 | 227 | 10.4 | 13.9 | 0.00 | 0.00 | 0.00 | 36 | 1026.2 |
| 20260508011219 | 69 | 224 | 9.6 | 12.2 | 0.00 | 0.00 | 0.00 | 36 | 1026.2 |
| 20260508010221 | 69 | 228 | 12.2 | 15.6 | 0.00 | 0.00 | 0.00 | 36 | 1026.4 |
| 20260508005220 | 69 | 224 | 11.3 | 14.8 | 0.00 | 0.00 | 0.00 | 35 | 1026.6 |
| 20260508004221 | 69 | 221 | 11.3 | 15.6 | 0.00 | 0.00 | 0.00 | 36 | 1026.6 |
| 20260508003221 | 68 | 223 | 11.3 | 15.6 | 0.00 | 0.00 | 0.00 | 35 | 1026.6 |
| 20260508002221 | 68 | 226 | 12.2 | 20.0 | 0.00 | 0.00 | 0.00 | 36 | 1026.6 |
| 20260508001320 | 68 | 223 | 12.2 | 15.6 | 0.00 | 0.00 | 0.00 | 35 | 1026.5 |
| 20260508000322 | 68 | 225 | 13.9 | 19.1 | 0.00 | 0.00 | 0.00 | 35 | 1026.5 |
| 20260507235419 | 68 | 225 | 13.0 | 19.1 | 0.00 | 0.00 | 0.00 | 37 | 1026.5 |
| 20260507235320 | 68 | 217 | 12.2 | 17.4 | 0.00 | 0.00 | 0.00 | 37 | 1026.6 |
| 20260507234418 | 68 | 226 | 14.8 | 19.1 | 0.00 | 0.00 | 0.00 | 37 | 1026.7 |
| 20260507233421 | 68 | 220 | 11.3 | 16.5 | 0.00 | 0.00 | 0.00 | 37 | 1026.6 |
| 20260507232420 | 68 | 226 | 10.4 | 13.0 | 0.00 | 0.00 | 0.00 | 37 | 1026.7 |
| 20260507231420 | 68 | 223 | 13.0 | 17.4 | 0.00 | 0.00 | 0.00 | 37 | 1026.8 |
| 20260507230420 | 67 | 225 | 13.9 | 16.5 | 0.00 | 0.00 | 0.00 | 37 | 1027.0 |
| 20260507224519 | 67 | 223 | 11.3 | 13.9 | 0.00 | 0.00 | 0.00 | 39 | 1027.2 |
| 20260507222520 | 67 | 214 | 10.4 | 15.6 | 0.00 | 0.00 | 0.00 | 41 | 1027.3 |
| 20260507221521 | 66 | 226 | 12.2 | 17.4 | 0.00 | 0.00 | 0.00 | 42 | 1027.4 |
| 20260507220522 | 66 | 221 | 13.0 | 17.4 | 0.00 | 0.00 | 0.00 | 42 | 1027.5 |
| 20260507215521 | 66 | 223 | 11.3 | 14.8 | 0.00 | 0.00 | 0.00 | 43 | 1027.6 |
| 20260507214619 | 65 | 217 | 13.9 | 17.4 | 0.00 | 0.00 | 0.00 | 46 | 1027.9 |
| 20260507214519 | 65 | 222 | 13.9 | 19.1 | 0.00 | 0.00 | 0.00 | 47 | 1027.8 |
| 20260507213520 | 65 | 226 | 13.0 | 19.1 | 0.00 | 0.00 | 0.00 | 48 | 1028.0 |
| 20260507211619 | 65 | 225 | 14.8 | 18.2 | 0.00 | 0.00 | 0.00 | 51 | 1028.0 |
| 20260507210620 | 64 | 225 | 13.0 | 16.5 | 0.00 | 0.00 | 0.00 | 52 | 1028.1 |
| 20260507205719 | 64 | 227 | 11.3 | 14.8 | 0.00 | 0.00 | 0.00 | 54 | 1028.3 |
| 20260507204720 | 64 | 230 | 13.0 | 18.2 | 0.00 | 0.00 | 0.00 | 54 | 1028.4 |
| 20260507203721 | 63 | 230 | 15.6 | 19.1 | 0.00 | 0.00 | 0.00 | 55 | 1028.5 |
| 20260507202721 | 63 | 224 | 13.0 | 17.4 | 0.00 | 0.00 | 0.00 | 56 | 1028.6 |
| 20260507201720 | 63 | 225 | 13.0 | 18.2 | 0.00 | 0.00 | 0.00 | 57 | 1028.8 |
| 20260507200720 | 63 | 227 | 10.4 | 15.6 | 0.00 | 0.00 | 0.00 | 57 | 1028.8 |
| 20260507195719 | 62 | 225 | 12.2 | 14.8 | 0.00 | 0.00 | 0.00 | 58 | 1028.9 |
| 20260507194720 | 62 | 228 | 10.4 | 13.0 | 0.00 | 0.00 | 0.00 | 57 | 1029.0 |
| 20260507193721 | 62 | 226 | 9.6 | 13.9 | 0.00 | 0.00 | 0.00 | 58 | 1029.1 |
| 20260507193620 | 62 | 231 | 10.4 | 13.9 | 0.00 | 0.00 | 0.00 | 58 | 1029.1 |
| 20260507185720 | 60 | 221 | 11.3 | 14.8 | 0.00 | 0.00 | 0.00 | 61 | 1029.7 |
| 20260507184720 | 60 | 227 | 8.7 | 11.3 | 0.00 | 0.00 | 0.00 | 61 | 1029.9 |
| 20260507183720 | 60 | 228 | 12.2 | 15.6 | 0.00 | 0.00 | 0.00 | 62 | 1029.9 |
| 20260507182819 | 60 | 225 | 13.0 | 16.5 | 0.00 | 0.00 | 0.00 | 62 | 1030.0 |
| 20260507181822 | 59 | 223 | 10.4 | 13.9 | 0.00 | 0.00 | 0.00 | 61 | 1030.2 |
| 20260507180820 | 59 | 229 | 11.3 | 15.6 | 0.00 | 0.00 | 0.00 | 63 | 1030.3 |
| 20260507174919 | 58 | 219 | 9.6 | 13.0 | 0.00 | 0.00 | 0.00 | 64 | 1030.5 |
| 20260507174820 | 58 | 223 | 10.4 | 13.0 | 0.00 | 0.00 | 0.00 | 64 | 1030.5 |
| 20260507173820 | 58 | 227 | 11.3 | 13.9 | 0.00 | 0.00 | 0.00 | 65 | 1030.6 |
| 20260507172819 | 58 | 215 | 10.4 | 14.8 | 0.00 | 0.00 | 0.00 | 65 | 1030.6 |
| 20260507171821 | 57 | 233 | 12.2 | 14.8 | 0.00 | 0.00 | 0.00 | 66 | 1030.8 |
| 20260507170919 | 57 | 216 | 8.7 | 13.0 | 0.00 | 0.00 | 0.00 | 66 | 1030.9 |
| 20260507165921 | 57 | 226 | 10.4 | 14.8 | 0.00 | 0.00 | 0.00 | 68 | 1030.8 |
| 20260507165819 | 57 | 226 | 9.6 | 15.6 | 0.00 | 0.00 | 0.00 | 69 | 1030.8 |
| 20260507163920 | 55 | 223 | 7.0 | 9.6 | 0.00 | 0.00 | 0.00 | 70 | 1030.9 |
| 20260507162922 | 55 | 225 | 11.3 | 15.6 | 0.00 | 0.00 | 0.00 | 70 | 1031.0 |
| 20260507162019 | 55 | 226 | 9.6 | 13.9 | 0.00 | 0.00 | 0.00 | 71 | 1030.9 |
| 20260507161020 | 55 | 228 | 12.2 | 17.4 | 0.00 | 0.00 | 0.00 | 71 | 1030.9 |
| 20260507154020 | 54 | 225 | 13.0 | 19.1 | 0.00 | 0.00 | 0.00 | 73 | 1031.1 |
| 20260507153021 | 54 | 225 | 12.2 | 17.4 | 0.00 | 0.00 | 0.00 | 73 | 1031.1 |
| 20260507151119 | 54 | 224 | 7.8 | 12.2 | 0.00 | 0.00 | 0.00 | 75 | 1031.2 |